Real Cittanova

Real Cittanova-Sangiorgese 1-0, la fotogallery a cura di Marco Tigani

Buona la prima per il Real Cittanova che nel derby contro la Sangiorgese trova la vittoria grazie alla rete di Sposato arrivata all'8' del secondo tempo. Punteggio pieno, quindi, per la squadra del tecnico...

Seconda Categoria, le designazioni arbitrali del sabato

Ecco la designazione arbitrale relativa alla gara di Seconda Categoria in programma sabato: C. Spinella-Real Cittanova: Gabriele Carmelo Fedele di Reggio Calabria Sangiorgese-Saline Joniche: Francesco Giuseppe Varacalli di Locri
video

Real Cittanova, intervista al nuovo tecnico Milano [VIDEO]

La prossima domenica prenderà il via ufficiale il campionato di Seconda Categoria, che vede anche quest'anno il Real Cittanova affrontare le compagini pianigiane e reggine in una stagione che si prospetta molto interessante. La...

Serie D, ecco i gironi per la stagione 2020/2021

La Lnd ha ufficializzato i gironi di Serie D 2020/2021. Il Girone I comprende le regioni del sud Italia (Sicilia, Calabria, Basilicata e Campania). Di Seguito le squadre che comporranno il girone: Biancavilla Castrovillari Cittanovese Città di Acireale ...
video

Real Cittanova, intervista al tecnico Adornato [VIDEO]

Un campionato che avrebbe ancora tanto da dare, quello del Real Cittanova, squadra debuttante nel campionato di Seconda Categoria, stagione 2019-2020, promossa dopo una stagione esaltante condotta dall'inizio alla fine al vertice della classifica....



DataCasaRisultatiTrasfertaOra
2021-04-18 15:00:0018/04/21- 15:00:0015:00
2021-04-11 15:00:0011/04/21- 15:00:0015:00
2021-03-28 15:00:0028/03/21- 15:00:0015:00
2021-03-20 15:00:0020/03/21- 15:00:0015:00
2021-03-14 15:00:0014/03/21- 15:00:0015:00
2021-03-07 15:00:0007/03/21- 15:00:0015:00
2021-02-21 15:00:0021/02/21- 15:00:0015:00
2021-02-14 15:00:0014/02/21- 15:00:0015:00
2021-02-07 15:00:0007/02/21- 15:00:0015:00
2021-01-31 15:00:0031/01/21- 15:00:0015:00
2021-01-23 15:00:0023/01/21- 15:00:0015:00
2021-01-17 15:00:0017/01/21- 15:00:0015:00
2021-01-10 15:00:0010/01/21- 15:00:0015:00
2020-12-20 15:00:0020/12/20- 15:00:0015:00
2020-12-13 15:00:0013/12/20- 15:00:0015:00
2020-12-06 15:00:0006/12/20- 15:00:0015:00
2020-11-29 15:00:0029/11/20- 15:00:0015:00
2020-11-15 15:00:0015/11/20- 15:00:0015:00
2020-11-07 15:00:0007/11/20- 15:00:0015:00
2020-11-01 15:00:0001/11/20- 15:00:0015:00
2020-10-24 15:00:0024/10/20- 15:00:0015:00
2020-10-18 15:00:0018/10/201 - 0 15:00:0015:00
2020-04-26 15:30:0026/04/20- 15:30:0015:30
2020-04-19 15:30:0019/04/20- 15:30:0015:30
2020-03-29 15:30:0029/03/20- 15:30:0015:30
2020-03-22 14:30:0022/03/20- 14:30:0014:30
2020-03-15 14:30:0015/03/20- 14:30:0014:30
2020-03-08 14:30:0008/03/20- 14:30:0014:30
2020-03-01 14:30:0001/03/202 - 0 14:30:0014:30
2020-02-16 14:30:0016/02/202 - 1 14:30:0014:30
2020-02-09 14:30:0009/02/200 - 2 14:30:0014:30
2020-02-01 14:30:0001/02/202 - 1 14:30:0014:30
2020-01-25 14:30:0025/01/200 - 1 14:30:0014:30
2020-01-19 14:30:0019/01/200 - 2 14:30:0014:30
2019-12-14 14:30:0014/12/193 - 1 14:30:0014:30
2019-12-08 14:30:0008/12/191 - 1 14:30:0014:30
2019-11-30 14:30:0030/11/190 - 1 14:30:0014:30
2019-11-17 14:30:0017/11/194 - 1 14:30:0014:30
2019-11-10 15:30:0010/11/192 - 0 15:30:0015:30
2019-11-02 15:30:0002/11/192 - 0 15:30:0015:30
2019-10-26 15:30:0026/10/193 - 3 15:30:0015:30
2019-10-20 15:30:0020/10/192 - 0 15:30:0015:30
2019-05-05 16:00:0005/05/192 - 0 16:00:0016:00
2019-04-27 16:00:0027/04/190 - 3 16:00:0016:00
2019-04-13 16:00:0013/04/193 - 0 16:00:0016:00
2019-04-07 16:00:0007/04/190 - 4 16:00:0016:00
2019-03-30 15:00:0030/03/195 - 0 15:00:0015:00
2019-03-24 15:00:0024/03/191 - 2 15:00:0015:00
2019-03-16 15:00:0016/03/191 - 1 15:00:0015:00
2019-03-03 15:00:0003/03/190 - 3 15:00:0015:00
2019-02-23 14:30:0023/02/193 - 1 14:30:0014:30
2019-02-16 14:30:0016/02/190 - 1 14:30:0014:30
2019-02-10 14:30:0010/02/191 - 3 14:30:0014:30
2019-02-02 14:30:0002/02/194 - 2 14:30:0014:30
2019-01-27 14:30:0027/01/193 - 2 14:30:0014:30
2019-01-19 14:30:0019/01/1910 - 0 14:30:0014:30
2019-01-13 10:30:0013/01/190 - 3 10:30:0010:30
2018-12-15 14:30:0015/12/182 - 1 14:30:0014:30
2018-12-08 14:30:0008/12/183 - 1 14:30:0014:30
2018-11-24 14:30:0024/11/181 - 0 14:30:0014:30
2018-11-18 14:30:0018/11/181 - 2 14:30:0014:30
2018-11-10 14:30:0010/11/183 - 1 14:30:0014:30